This is the latest recevied weather packets stored in our database for station/object KC8P. If no packets are shown the sender has not sent any weather packets the latest 10 day(s).
| Time | Temp. | Humidity | Pressure | Rain* | Wind** | Luminosity | Snow |
|---|---|---|---|---|---|---|---|
| 1778279951 | 17.78° C | 34% | 1006.9 hPa | 0 mm | - | 232 W/m² | - |
| 1778279885 | 17.78° C | 36% | 1006.9 hPa | 0 mm | - | 231 W/m² | - |
| 1778279820 | 17.78° C | 37% | 1006.6 hPa | 0 mm | - | 173 W/m² | - |
| 1778279754 | 18.33° C | 35% | 1006.9 hPa | 0 mm | - | 241 W/m² | - |
| 1778279688 | 18.33° C | 40% | 1006.9 hPa | 0 mm | - | 248 W/m² | - |
| 1778279623 | 18.33° C | 36% | 1006.6 hPa | 0 mm | - | 254 W/m² | - |
| 1778279561 | 18.33° C | 36% | 1006.9 hPa | 0 mm | - | 252 W/m² | - |
| 1778279491 | 18.33° C | 36% | 1006.9 hPa | 0 mm | - | 248 W/m² | - |
| 1778279426 | 18.89° C | 35% | 1006.6 hPa | 0 mm | - | 260 W/m² | - |
| 1778279361 | 18.33° C | 36% | 1006.9 hPa | 0 mm | - | 275 W/m² | - |
| 1778279295 | 17.78° C | 36% | 1006.9 hPa | 0 mm | - | 284 W/m² | - |
| 1778279228 | 17.78° C | 36% | 1006.6 hPa | 0 mm | - | 285 W/m² | - |
| 1778279160 | 17.78° C | 36% | 1006.9 hPa | 0 mm | - | 291 W/m² | - |
| 1778279094 | 17.78° C | 36% | 1006.9 hPa | 0 mm | - | 307 W/m² | - |
| 1778279028 | 17.78° C | 36% | 1006.9 hPa | 0 mm | - | 317 W/m² | - |
| 1778278962 | 17.78° C | 36% | 1006.9 hPa | 0 mm | - | 308 W/m² | - |
| 1778278897 | 17.78° C | 36% | 1006.9 hPa | 0 mm | - | 297 W/m² | - |
| 1778278831 | 17.78° C | 36% | 1006.9 hPa | 0 mm | - | 294 W/m² | - |
| 1778278766 | 18.33° C | 36% | 1006.9 hPa | 0 mm | - | 293 W/m² | - |
| 1778278700 | 18.33° C | 35% | 1006.9 hPa | 0 mm | - | 303 W/m² | - |
| 1778278635 | 17.78° C | 36% | 1006.9 hPa | 0 mm | - | 311 W/m² | - |
| 1778278582 | 17.78° C | 36% | 1006.9 hPa | 0 mm | - | 309 W/m² | - |
| 1778278504 | 17.78° C | 36% | 1006.9 hPa | 0 mm | - | 301 W/m² | - |
| 1778278437 | 17.78° C | 36% | 1006.6 hPa | 0 mm | - | 308 W/m² | - |
| 1778278372 | 17.78° C | 35% | 1006.6 hPa | 0 mm | - | 321 W/m² | - |
* Rain latest hour (hover to see other rain measurements)
** Current wind speed in m/s (hover to see current wind gust speed)